Regional Weather Roundup
Issued by NWS

Home | Current Version | Previous Version | Graphics & Text | Print | Product List | Glossary On
Versions: 1 2 3 4 5 6 7 8 9 10 11 12 13 14 15 16 17 18 19 20 21 22 23 24 25 26 27 28 29 30 31 32 33 34 35 36 37 38 39 40 41 42 43 44 45 46 47 48 49 50
000
ASUS45 KCYS 242210
RWRWY

WYOMING REGIONAL WEATHER ROUNDUP
NATIONAL WEATHER SERVICE CHEYENNE WY
400 PM MDT THU JUL 24 2014

NOTE:  "FAIR" INDICATES FEW OR NO CLOUDS BELOW 12,000 FEET
WITH NO SIGNIFICANT WEATHER AND/OR OBSTRUCTIONS TO VISIBILITY.

WYZ001-242300-
YELLOWSTONE NATIONAL PARK

CITY           SKY/WX    TMP DP  RH WIND       PRES   REMARKS
LK YELLOWSTONE   N/A     68  27  21 W9G23     30.25F
W YELLOWSTONE  NOT AVBL

$$
WYZ002>013-054>058-071-098>099-242300-
NORTHERN WYOMING

CITY           SKY/WX    TMP DP  RH WIND       PRES   REMARKS
JACKSON        SUNNY     81  30  16 SW20G28   30.15F
CODY           NOT AVBL
GREYBULL       MOSUNNY  102  23   6 W31G39    29.78F HX  95
WORLAND        MOSUNNY  100  35  10 W21G33    29.82F HX  94
SHERIDAN       PTSUNNY  100  43  14 NW14      29.77F HX  96
BUFFALO        MOSUNNY   99  29   8 W21G33    29.87F HX  93
GILLETTE       PTSUNNY  101  37  11 W15G28    29.81F HX  95
HULETT         FAIR      90  61  37 MISG      29.83
NEWCASTLE      FAIR      97  32  10 MISG      29.85  HX  91

$$
WYZ014>020-022>026-101>103-242300-
CENTRAL WYOMING

CITY           SKY/WX    TMP DP  RH WIND       PRES   REMARKS
BIG PINEY      SUNNY     86  29  12 W20G38    30.19S
PINEDALE       PTCLDY    81  32  17 NW15G23   30.18F
DUBOIS         FAIR      79  23  12 W32G43    30.16F
LANDER         MOSUNNY   95  30  10 W17G26    29.98F
RIVERTON       SUNNY     96  28   9 W28G39    29.97F HX  90
CASPER         PTSUNNY   91  40  16 SW23G29   29.98F
DOUGLAS        CLOUDY    91  45  20 W17       29.97S

$$
WYZ021-027>030-104>119-242300-
SOUTHERN WYOMING

CITY           SKY/WX    TMP DP  RH WIND       PRES   REMARKS
EVANSTON       MOSUNNY   86  37  17 W29G37    30.21F
KEMMERER       CLEAR    N/A N/A N/A W23G36    30.21F
FORT BRIDGER   FAIR      89  32  13 W20G28    30.22F
ROCK SPRINGS   MOSUNNY   90  29  11 W29G39    30.15F
DIXON          FAIR      90  40  17 SW15G21   30.20F
RAWLINS        PTSUNNY   88  38  17 SW18G30   30.18F
SARATOGA       FAIR      81  41  24 SW15      30.22F
LARAMIE        CLOUDY    76  45  33 SW15G22   30.25F
CHEYENNE       CLOUDY    79  47  32 SW9       30.16R
TORRINGTON     PTSUNNY   99  46  16 W21G36    29.89S HX  95
PINE BLUFFS    RAIN      77  55  47 W16G33    30.03R

$$


USA.gov is the U.S. government's official web portal to all federal, state and local government web resources and services.